Saint Bonnet de Bellac- Haute Vienne - France
Donnes mto: lundi, 02/07/2012
Date Horaire Temp. E. Hum. E. P.atmo. Pluie Vent Direction Direction Ensoleilleme Solaire P. de rose Temp au vent Rafales
02/07/2012 00:00 14,8 C 64 % 1020,6 hPa 0,0 mm 0,0 km/h (0 Bft) O 270 0 min 0 W/m 8,1 C 14,8 C 0,0 km/h (0 Bft)
02/07/2012 00:10 14,6 C 64 % 1020,6 hPa 0,0 mm 0,0 km/h (0 Bft) O-SO 247 0 min 0 W/m 7,9 C 14,6 C 0,0 km/h (0 Bft)
02/07/2012 00:20 14,5 C 64 % 1020,6 hPa 0,0 mm 0,0 km/h (0 Bft) O-NO 292 0 min 0 W/m 7,8 C 14,5 C 0,0 km/h (0 Bft)
02/07/2012 00:30 14,4 C 64 % 1020,4 hPa 0,0 mm 0,0 km/h (0 Bft) O-NO 292 0 min 0 W/m 7,7 C 14,4 C 0,0 km/h (0 Bft)
02/07/2012 00:40 14,2 C 65 % 1020,4 hPa 0,0 mm 0,0 km/h (0 Bft) O-NO 292 0 min 0 W/m 7,7 C 14,2 C 0,0 km/h (0 Bft)
02/07/2012 00:50 13,9 C 68 % 1020,2 hPa 0,0 mm 1,8 km/h (1 Bft) S 180 0 min 0 W/m 8,1 C 13,9 C 3,2 km/h (1 Bft)
02/07/2012 01:00 13,6 C 68 % 1020,1 hPa 0,0 mm 0,0 km/h (0 Bft) S-SO 202 0 min 0 W/m 7,8 C 13,6 C 0,0 km/h (0 Bft)
02/07/2012 01:10 13,3 C 69 % 1019,9 hPa 0,0 mm 0,4 km/h (0 Bft) O-SO 247 0 min 0 W/m 7,7 C 13,3 C 4,0 km/h (1 Bft)
02/07/2012 01:20 12,9 C 70 % 1019,9 hPa 0,0 mm 0,4 km/h (0 Bft) SO 225 0 min 0 W/m 7,6 C 12,9 C 4,0 km/h (1 Bft)
02/07/2012 01:30 12,6 C 71 % 1019,8 hPa 0,0 mm 0,4 km/h (0 Bft) N 360 0 min 0 W/m 7,5 C 12,6 C 0,4 km/h (0 Bft)
02/07/2012 01:40 12,4 C 73 % 1019,8 hPa 0,0 mm 0,0 km/h (0 Bft) SO 225 0 min 0 W/m 7,7 C 12,4 C 0,0 km/h (0 Bft)
02/07/2012 01:50 12,2 C 73 % 1019,7 hPa 0,0 mm 0,0 km/h (0 Bft) N-NO 337 0 min 0 W/m 7,5 C 12,2 C 0,0 km/h (0 Bft)
02/07/2012 02:00 11,9 C 73 % 1019,7 hPa 0,0 mm 0,0 km/h (0 Bft) SE 135 0 min 0 W/m 7,2 C 11,9 C 0,0 km/h (0 Bft)
02/07/2012 02:10 11,7 C 74 % 1019,7 hPa 0,0 mm 0,0 km/h (0 Bft) S 180 0 min 0 W/m 7,2 C 11,7 C 0,0 km/h (0 Bft)
02/07/2012 02:20 11,4 C 76 % 1019,6 hPa 0,0 mm 2,2 km/h (1 Bft) S-SO 202 0 min 0 W/m 7,3 C 11,4 C 3,2 km/h (1 Bft)
02/07/2012 02:30 11,2 C 76 % 1019,6 hPa 0,0 mm 0,0 km/h (0 Bft) SO 225 0 min 0 W/m 7,1 C 11,2 C 0,0 km/h (0 Bft)
02/07/2012 02:40 10,9 C 77 % 1019,4 hPa 0,0 mm 0,0 km/h (0 Bft) SO 225 0 min 0 W/m 7,0 C 10,9 C 0,0 km/h (0 Bft)
02/07/2012 02:50 10,7 C 78 % 1019,4 hPa 0,0 mm 0,0 km/h (0 Bft) SO 225 0 min 0 W/m 7,0 C 10,7 C 0,0 km/h (0 Bft)
02/07/2012 03:02 10,4 C 80 % 1019,4 hPa 0,0 mm 0,0 km/h (0 Bft) S-SO 202 0 min 0 W/m 7,1 C 10,4 C 0,0 km/h (0 Bft)
02/07/2012 03:10 10,2 C 80 % 1019,3 hPa 0,0 mm 0,0 km/h (0 Bft) SO 225 0 min 0 W/m 6,9 C 10,2 C 0,0 km/h (0 Bft)
02/07/2012 03:20 9,9 C 82 % 1019,3 hPa 0,0 mm 0,0 km/h (0 Bft) SO 225 0 min 0 W/m 7,0 C 9,9 C 0,0 km/h (0 Bft)
02/07/2012 03:30 9,8 C 83 % 1019,4 hPa 0,0 mm 0,4 km/h (0 Bft) SO 225 0 min 0 W/m 7,1 C 9,8 C 4,0 km/h (1 Bft)
02/07/2012 03:40 9,8 C 83 % 1019,3 hPa 0,0 mm 0,0 km/h (0 Bft) SO 225 0 min 0 W/m 7,1 C 9,8 C 0,0 km/h (0 Bft)
02/07/2012 03:50 9,8 C 84 % 1019,3 hPa 0,0 mm 1,4 km/h (1 Bft) S-SO 202 0 min 0 W/m 7,2 C 9,8 C 4,3 km/h (1 Bft)
02/07/2012 04:00 9,8 C 84 % 1019,2 hPa 0,0 mm 1,1 km/h (1 Bft) S-SO 202 0 min 0 W/m 7,2 C 9,8 C 3,6 km/h (1 Bft)
02/07/2012 04:10 9,6 C 84 % 1019,3 hPa 0,0 mm 0,0 km/h (0 Bft) SO 225 0 min 0 W/m 7,0 C 9,6 C 0,0 km/h (0 Bft)
02/07/2012 04:20 9,5 C 84 % 1019,3 hPa 0,0 mm 0,0 km/h (0 Bft) O-SO 247 0 min 0 W/m 6,9 C 9,5 C 0,0 km/h (0 Bft)
02/07/2012 04:30 9,4 C 84 % 1019,3 hPa 0,0 mm 0,0 km/h (0 Bft) S-SO 202 0 min 0 W/m 6,8 C 9,4 C 0,0 km/h (0 Bft)
02/07/2012 04:40 9,3 C 85 % 1019,2 hPa 0,0 mm 0,0 km/h (0 Bft) S-SO 202 0 min 0 W/m 6,9 C 9,3 C 0,0 km/h (0 Bft)
02/07/2012 04:50 9,1 C 86 % 1019,0 hPa 0,0 mm 0,0 km/h (0 Bft) SO 225 0 min 0 W/m 6,9 C 9,1 C 0,0 km/h (0 Bft)
02/07/2012 05:00 9,1 C 86 % 1019,0 hPa 0,0 mm 0,0 km/h (0 Bft) SO 225 0 min 0 W/m 6,9 C 9,1 C 0,0 km/h (0 Bft)
02/07/2012 05:10 8,9 C 86 % 1019,0 hPa 0,0 mm 0,0 km/h (0 Bft) S-SO 202 0 min 0 W/m 6,7 C 8,9 C 0,0 km/h (0 Bft)
02/07/2012 05:20 8,8 C 86 % 1019,0 hPa 0,0 mm 0,0 km/h (0 Bft) S-SO 202 0 min 0 W/m 6,6 C 8,8 C 0,0 km/h (0 Bft)
02/07/2012 05:30 8,6 C 86 % 1019,1 hPa 0,0 mm 0,0 km/h (0 Bft) S-SO 202 0 min 0 W/m 6,4 C 8,6 C 0,0 km/h (0 Bft)
02/07/2012 05:40 8,4 C 85 % 1019,2 hPa 0,0 mm 0,0 km/h (0 Bft) S-SO 202 0 min 0 W/m 6,0 C 8,4 C 0,0 km/h (0 Bft)
02/07/2012 05:50 8,3 C 85 % 1019,2 hPa 0,0 mm 0,0 km/h (0 Bft) S-SO 202 0 min 0 W/m 5,9 C 8,3 C 0,0 km/h (0 Bft)
02/07/2012 06:00 8,1 C 86 % 1019,3 hPa 0,0 mm 0,0 km/h (0 Bft) S-SO 202 0 min 0 W/m 5,9 C 8,1 C 0,0 km/h (0 Bft)
02/07/2012 06:10 7,9 C 87 % 1019,3 hPa 0,0 mm 0,0 km/h (0 Bft) S-SO 202 0 min 0 W/m 5,9 C 7,9 C 0,0 km/h (0 Bft)
02/07/2012 06:20 7,8 C 87 % 1019,3 hPa 0,0 mm 0,0 km/h (0 Bft) S-SO 202 0 min 0 W/m 5,8 C 7,8 C 0,0 km/h (0 Bft)
02/07/2012 06:30 7,8 C 89 % 1019,3 hPa 0,0 mm 0,0 km/h (0 Bft) S-SO 202 0 min 0 W/m 6,1 C 7,8 C 0,0 km/h (0 Bft)
02/07/2012 06:40 7,9 C 89 % 1019,2 hPa 0,0 mm 0,0 km/h (0 Bft) S-SO 202 0 min 0 W/m 6,2 C 7,9 C 0,0 km/h (0 Bft)
02/07/2012 06:50 8,1 C 89 % 1019,3 hPa 0,0 mm 0,0 km/h (0 Bft) S-SO 202 0 min 0 W/m 6,4 C 8,1 C 0,0 km/h (0 Bft)
02/07/2012 07:00 8,4 C 89 % 1019,3 hPa 0,0 mm 0,0 km/h (0 Bft) S-SO 202 0 min 0 W/m 6,7 C 8,4 C 0,0 km/h (0 Bft)
02/07/2012 07:10 8,8 C 89 % 1019,2 hPa 0,0 mm 0,0 km/h (0 Bft) S-SO 202 0 min 0 W/m 7,1 C 8,8 C 0,0 km/h (0 Bft)
02/07/2012 07:20 9,1 C 89 % 1019,3 hPa 0,0 mm 0,0 km/h (0 Bft) S-SO 202 0 min 0 W/m 7,4 C 9,1 C 0,0 km/h (0 Bft)
02/07/2012 07:30 9,6 C 90 % 1019,3 hPa 0,0 mm 0,0 km/h (0 Bft) S-SO 202 0 min 0 W/m 8,0 C 9,6 C 0,0 km/h (0 Bft)
02/07/2012 07:40 10,1 C 89 % 1019,3 hPa 0,0 mm 0,0 km/h (0 Bft) S-SO 202 0 min 0 W/m 8,4 C 10,1 C 0,0 km/h (0 Bft)
02/07/2012 07:50 10,4 C 87 % 1019,4 hPa 0,0 mm 0,0 km/h (0 Bft) SO 225 0 min 0 W/m 8,3 C 10,4 C 0,0 km/h (0 Bft)
02/07/2012 08:00 10,6 C 86 % 1019,5 hPa 0,0 mm 1,4 km/h (1 Bft) SO 225 0 min 0 W/m 8,4 C 10,6 C 4,0 km/h (1 Bft)
02/07/2012 08:10 10,9 C 86 % 1019,5 hPa 0,0 mm 0,0 km/h (0 Bft) SO 225 0 min 0 W/m 8,7 C 10,9 C 3,2 km/h (1 Bft)
02/07/2012 08:20 11,3 C 85 % 1019,5 hPa 0,0 mm 1,1 km/h (1 Bft) SO 225 0 min 0 W/m 8,9 C 11,3 C 1,1 km/h (1 Bft)
02/07/2012 08:30 11,8 C 85 % 1019,6 hPa 0,0 mm 0,4 km/h (0 Bft) SO 225 0 min 0 W/m 9,4 C 11,8 C 3,6 km/h (1 Bft)
02/07/2012 08:40 12,4 C 85 % 1019,6 hPa 0,0 mm 0,0 km/h (0 Bft) O-NO 292 0 min 0 W/m 9,9 C 12,4 C 0,0 km/h (0 Bft)
02/07/2012 08:50 13,1 C 83 % 1019,7 hPa 0,0 mm 0,4 km/h (0 Bft) NE 45 0 min 0 W/m 10,3 C 13,1 C 4,0 km/h (1 Bft)
02/07/2012 09:00 13,9 C 82 % 1019,7 hPa 0,0 mm 0,0 km/h (0 Bft) N-NO 337 0 min 0 W/m 10,9 C 13,9 C 0,0 km/h (0 Bft)
02/07/2012 09:10 14,6 C 79 % 1019,8 hPa 0,0 mm 2,2 km/h (1 Bft) NO 315 0 min 0 W/m 11,0 C 14,6 C 4,0 km/h (1 Bft)
02/07/2012 09:20 15,2 C 78 % 1019,8 hPa 0,0 mm 0,7 km/h (0 Bft) NE 45 0 min 0 W/m 11,4 C 15,2 C 4,3 km/h (1 Bft)
02/07/2012 09:30 15,8 C 76 % 1019,7 hPa 0,0 mm 0,0 km/h (0 Bft) N 360 0 min 0 W/m 11,6 C 15,8 C 0,0 km/h (0 Bft)
02/07/2012 09:40 16,5 C 74 % 1019,8 hPa 0,0 mm 1,1 km/h (1 Bft) N-NE 22 0 min 0 W/m 11,8 C 16,5 C 1,1 km/h (1 Bft)
02/07/2012 09:50 17,2 C 70 % 1019,8 hPa 0,0 mm 1,4 km/h (1 Bft) O 270 0 min 0 W/m 11,7 C 17,2 C 6,1 km/h (2 Bft)
02/07/2012 10:00 17,7 C 69 % 1019,8 hPa 0,0 mm 0,4 km/h (0 Bft) NE 45 0 min 0 W/m 11,9 C 17,7 C 0,4 km/h (0 Bft)
02/07/2012 10:10 18,4 C 66 % 1019,8 hPa 0,0 mm 0,4 km/h (0 Bft) N-NO 337 0 min 0 W/m 11,9 C 18,4 C 3,6 km/h (1 Bft)
02/07/2012 10:20 18,9 C 65 % 1019,7 hPa 0,0 mm 1,4 km/h (1 Bft) N 360 0 min 0 W/m 12,2 C 18,9 C 7,2 km/h (2 Bft)
02/07/2012 10:30 19,5 C 63 % 1019,7 hPa 0,0 mm 0,0 km/h (0 Bft) N-NE 22 0 min 0 W/m 12,3 C 19,5 C 4,0 km/h (1 Bft)
02/07/2012 10:40 19,8 C 62 % 1019,6 hPa 0,0 mm 0,7 km/h (0 Bft) SO 225 0 min 0 W/m 12,3 C 19,8 C 0,7 km/h (0 Bft)
02/07/2012 10:50 19,9 C 60 % 1019,6 hPa 0,0 mm 1,1 km/h (1 Bft) O-NO 292 0 min 0 W/m 11,9 C 19,9 C 1,1 km/h (1 Bft)
02/07/2012 11:00 20,2 C 58 % 1019,7 hPa 0,0 mm 1,4 km/h (1 Bft) NO 315 0 min 0 W/m 11,7 C 20,2 C 7,2 km/h (2 Bft)
02/07/2012 11:10 20,4 C 57 % 1019,7 hPa 0,0 mm 3,6 km/h (1 Bft) E-NE 67 0 min 0 W/m 11,6 C 20,4 C 6,5 km/h (2 Bft)
02/07/2012 11:20 20,6 C 56 % 1019,7 hPa 0,0 mm 0,0 km/h (0 Bft) O 270 0 min 0 W/m 11,5 C 20,6 C 0,0 km/h (0 Bft)
02/07/2012 11:30 20,9 C 55 % 1019,7 hPa 0,0 mm 0,7 km/h (0 Bft) N-NO 337 0 min 0 W/m 11,5 C 20,9 C 0,7 km/h (0 Bft)
02/07/2012 11:40 21,4 C 55 % 1019,6 hPa 0,0 mm 1,4 km/h (1 Bft) SO 225 0 min 0 W/m 12,0 C 21,4 C 6,5 km/h (2 Bft)
02/07/2012 11:50 21,4 C 54 % 1019,6 hPa 0,0 mm 4,0 km/h (1 Bft) NO 315 0 min 0 W/m 11,7 C 21,4 C 8,3 km/h (2 Bft)
02/07/2012 12:00 21,6 C 53 % 1019,6 hPa 0,0 mm 6,1 km/h (2 Bft) NO 315 0 min 0 W/m 11,6 C 21,6 C 7,2 km/h (2 Bft)
02/07/2012 12:10 21,6 C 53 % 1019,5 hPa 0,0 mm 0,4 km/h (0 Bft) N-NO 337 0 min 0 W/m 11,6 C 21,6 C 4,3 km/h (1 Bft)
02/07/2012 12:20 21,6 C 52 % 1019,5 hPa 0,0 mm 1,8 km/h (1 Bft) SO 225 0 min 0 W/m 11,3 C 21,6 C 4,3 km/h (1 Bft)
02/07/2012 12:30 21,1 C 55 % 1019,5 hPa 0,0 mm 2,2 km/h (1 Bft) O-SO 247 0 min 0 W/m 11,7 C 21,1 C 4,0 km/h (1 Bft)
02/07/2012 12:40 21,1 C 53 % 1019,4 hPa 0,0 mm 1,4 km/h (1 Bft) SO 225 0 min 0 W/m 11,1 C 21,1 C 4,3 km/h (1 Bft)
02/07/2012 12:50 21,1 C 53 % 1019,4 hPa 0,0 mm 1,1 km/h (1 Bft) S-SE 157 0 min 0 W/m 11,1 C 21,1 C 4,0 km/h (1 Bft)
02/07/2012 13:00 21,1 C 53 % 1019,3 hPa 0,0 mm 3,2 km/h (1 Bft) SO 225 0 min 0 W/m 11,1 C 21,1 C 7,9 km/h (2 Bft)
02/07/2012 13:10 20,9 C 53 % 1019,3 hPa 0,0 mm 2,2 km/h (1 Bft) SE 135 0 min 0 W/m 11,0 C 20,9 C 3,6 km/h (1 Bft)
02/07/2012 13:20 20,9 C 53 % 1019,2 hPa 0,0 mm 0,0 km/h (0 Bft) O 270 0 min 0 W/m 11,0 C 20,9 C 3,2 km/h (1 Bft)
02/07/2012 13:30 21,3 C 52 % 1019,3 hPa 0,0 mm 4,3 km/h (1 Bft) SE 135 0 min 0 W/m 11,0 C 21,3 C 7,9 km/h (2 Bft)
02/07/2012 13:40 21,4 C 51 % 1019,2 hPa 0,0 mm 3,2 km/h (1 Bft) O-SO 247 0 min 0 W/m 10,8 C 21,4 C 8,3 km/h (2 Bft)
02/07/2012 13:50 21,4 C 52 % 1019,2 hPa 0,0 mm 0,0 km/h (0 Bft) S 180 0 min 0 W/m 11,1 C 21,4 C 0,0 km/h (0 Bft)
02/07/2012 14:00 21,5 C 52 % 1019,1 hPa 0,0 mm 1,8 km/h (1 Bft) SO 225 0 min 0 W/m 11,2 C 21,5 C 2,9 km/h (1 Bft)
02/07/2012 14:10 21,4 C 51 % 1019,1 hPa 0,0 mm 0,0 km/h (0 Bft) O-SO 247 0 min 0 W/m 10,8 C 21,4 C 0,0 km/h (0 Bft)
02/07/2012 14:20 21,7 C 50 % 1019,0 hPa 0,0 mm 2,2 km/h (1 Bft) O 270 0 min 0 W/m 10,8 C 21,7 C 4,7 km/h (1 Bft)
02/07/2012 14:30 21,8 C 48 % 1019,1 hPa 0,0 mm 4,7 km/h (1 Bft) SO 225 0 min 0 W/m 10,3 C 21,8 C 7,9 km/h (2 Bft)
02/07/2012 14:40 21,9 C 49 % 1019,0 hPa 0,0 mm 4,3 km/h (1 Bft) S 180 0 min 0 W/m 10,7 C 21,9 C 6,8 km/h (2 Bft)
02/07/2012 14:50 22,2 C 46 % 1019,0 hPa 0,0 mm 5,4 km/h (2 Bft) SO 225 0 min 0 W/m 10,0 C 22,2 C 5,4 km/h (2 Bft)
02/07/2012 15:00 22,2 C 48 % 1019,1 hPa 0,0 mm 4,3 km/h (1 Bft) SO 225 0 min 0 W/m 10,7 C 22,2 C 7,2 km/h (2 Bft)
02/07/2012 15:10 22,3 C 47 % 1019,0 hPa 0,0 mm 1,8 km/h (1 Bft) O-SO 247 0 min 0 W/m 10,4 C 22,3 C 4,0 km/h (1 Bft)
02/07/2012 15:20 22,3 C 46 % 1019,0 hPa 0,0 mm 1,4 km/h (1 Bft) SO 225 0 min 0 W/m 10,1 C 22,3 C 1,4 km/h (1 Bft)
02/07/2012 15:30 22,4 C 45 % 1018,9 hPa 0,0 mm 6,1 km/h (2 Bft) S-SO 202 0 min 0 W/m 9,9 C 22,4 C 7,6 km/h (2 Bft)
02/07/2012 15:40 22,3 C 45 % 1018,8 hPa 0,0 mm 2,9 km/h (1 Bft) O-SO 247 0 min 0 W/m 9,8 C 22,3 C 7,6 km/h (2 Bft)
02/07/2012 15:50 22,5 C 46 % 1018,7 hPa 0,0 mm 3,6 km/h (1 Bft) NO 315 0 min 0 W/m 10,3 C 22,5 C 6,8 km/h (2 Bft)
02/07/2012 16:00 22,8 C 45 % 1018,7 hPa 0,0 mm 0,4 km/h (0 Bft) O-NO 292 0 min 0 W/m 10,2 C 22,8 C 3,6 km/h (1 Bft)
02/07/2012 16:10 22,8 C 45 % 1018,6 hPa 0,0 mm 2,2 km/h (1 Bft) O-SO 247 0 min 0 W/m 10,2 C 22,8 C 4,3 km/h (1 Bft)
02/07/2012 16:20 22,8 C 44 % 1018,6 hPa 0,0 mm 3,2 km/h (1 Bft) O-SO 247 0 min 0 W/m 9,9 C 22,8 C 4,0 km/h (1 Bft)
02/07/2012 16:30 23,3 C 44 % 1018,6 hPa 0,0 mm 2,2 km/h (1 Bft) O-SO 247 0 min 0 W/m 10,4 C 23,3 C 7,2 km/h (2 Bft)
02/07/2012 16:40 23,4 C 43 % 1018,6 hPa 0,0 mm 0,4 km/h (0 Bft) O-SO 247 0 min 0 W/m 10,1 C 23,4 C 6,1 km/h (2 Bft)
02/07/2012 16:50 23,2 C 43 % 1018,5 hPa 0,0 mm 1,8 km/h (1 Bft) O-NO 292 0 min 0 W/m 9,9 C 23,2 C 6,5 km/h (2 Bft)
02/07/2012 17:00 22,9 C 45 % 1018,5 hPa 0,0 mm 0,7 km/h (0 Bft) N-NO 337 0 min 0 W/m 10,3 C 22,9 C 3,6 km/h (1 Bft)
02/07/2012 17:10 23,1 C 45 % 1018,5 hPa 0,0 mm 4,3 km/h (1 Bft) O-SO 247 0 min 0 W/m 10,5 C 23,1 C 7,2 km/h (2 Bft)
02/07/2012 17:20 23,3 C 44 % 1018,5 hPa 0,0 mm 0,0 km/h (0 Bft) O-NO 292 0 min 0 W/m 10,4 C 23,3 C 0,0 km/h (0 Bft)
02/07/2012 17:30 23,3 C 44 % 1018,6 hPa 0,0 mm 2,9 km/h (1 Bft) SO 225 0 min 0 W/m 10,4 C 23,3 C 7,2 km/h (2 Bft)
02/07/2012 17:40 22,9 C 45 % 1018,7 hPa 0,0 mm 0,0 km/h (0 Bft) NO 315 0 min 0 W/m 10,3 C 22,9 C 0,0 km/h (0 Bft)
02/07/2012 17:50 22,8 C 46 % 1018,7 hPa 0,0 mm 1,4 km/h (1 Bft) SO 225 0 min 0 W/m 10,6 C 22,8 C 4,3 km/h (1 Bft)
02/07/2012 18:00 22,6 C 45 % 1018,5 hPa 0,0 mm 2,5 km/h (1 Bft) SO 225 0 min 0 W/m 10,1 C 22,6 C 4,3 km/h (1 Bft)
02/07/2012 18:10 22,5 C 45 % 1018,5 hPa 0,0 mm 2,2 km/h (1 Bft) S-SO 202 0 min 0 W/m 10,0 C 22,5 C 3,6 km/h (1 Bft)
02/07/2012 18:20 22,3 C 46 % 1018,5 hPa 0,0 mm 3,2 km/h (1 Bft) SO 225 0 min 0 W/m 10,1 C 22,3 C 4,3 km/h (1 Bft)
02/07/2012 18:30 22,4 C 47 % 1018,4 hPa 0,0 mm 0,4 km/h (0 Bft) O 270 0 min 0 W/m 10,5 C 22,4 C 3,6 km/h (1 Bft)
02/07/2012 18:40 22,6 C 47 % 1018,4 hPa 0,0 mm 3,6 km/h (1 Bft) O-SO 247 0 min 0 W/m 10,7 C 22,6 C 8,6 km/h (2 Bft)
02/07/2012 18:50 22,8 C 48 % 1018,3 hPa 0,0 mm 0,0 km/h (0 Bft) O-SO 247 0 min 0 W/m 11,2 C 22,8 C 0,0 km/h (0 Bft)
02/07/2012 19:00 22,9 C 47 % 1018,3 hPa 0,0 mm 1,1 km/h (1 Bft) O 270 0 min 0 W/m 11,0 C 22,9 C 1,1 km/h (1 Bft)
02/07/2012 19:10 22,8 C 47 % 1018,3 hPa 0,0 mm 2,9 km/h (1 Bft) SO 225 0 min 0 W/m 10,9 C 22,8 C 6,5 km/h (2 Bft)
02/07/2012 19:20 22,3 C 49 % 1018,2 hPa 0,0 mm 0,0 km/h (0 Bft) SO 225 0 min 0 W/m 11,1 C 22,3 C 0,0 km/h (0 Bft)
02/07/2012 19:30 21,9 C 50 % 1018,3 hPa 0,0 mm 1,1 km/h (1 Bft) O-SO 247 0 min 0 W/m 11,0 C 21,9 C 1,1 km/h (1 Bft)
02/07/2012 19:40 21,4 C 51 % 1018,3 hPa 0,0 mm 1,8 km/h (1 Bft) O-SO 247 0 min 0 W/m 10,8 C 21,4 C 3,6 km/h (1 Bft)
02/07/2012 19:50 21,3 C 52 % 1018,3 hPa 0,0 mm 1,1 km/h (1 Bft) SO 225 0 min 0 W/m 11,0 C 21,3 C 6,8 km/h (2 Bft)
02/07/2012 20:00 21,1 C 53 % 1018,3 hPa 0,0 mm 1,1 km/h (1 Bft) O-SO 247 0 min 0 W/m 11,1 C 21,1 C 3,2 km/h (1 Bft)
02/07/2012 20:10 20,9 C 53 % 1018,3 hPa 0,0 mm 1,4 km/h (1 Bft) N-NE 22 0 min 0 W/m 11,0 C 20,9 C 6,8 km/h (2 Bft)
02/07/2012 20:20 20,7 C 53 % 1018,3 hPa 0,0 mm 0,4 km/h (0 Bft) O-SO 247 0 min 0 W/m 10,8 C 20,7 C 3,6 km/h (1 Bft)
02/07/2012 20:30 20,6 C 54 % 1018,4 hPa 0,0 mm 0,4 km/h (0 Bft) O 270 0 min 0 W/m 11,0 C 20,6 C 2,9 km/h (1 Bft)
02/07/2012 20:40 20,4 C 54 % 1018,4 hPa 0,0 mm 0,4 km/h (0 Bft) O-SO 247 0 min 0 W/m 10,8 C 20,4 C 3,2 km/h (1 Bft)
02/07/2012 20:50 20,0 C 55 % 1018,4 hPa 0,0 mm 0,0 km/h (0 Bft) O-SO 247 0 min 0 W/m 10,7 C 20,0 C 0,0 km/h (0 Bft)
02/07/2012 21:00 19,7 C 56 % 1018,5 hPa 0,0 mm 0,0 km/h (0 Bft) O-SO 247 0 min 0 W/m 10,7 C 19,7 C 0,0 km/h (0 Bft)
02/07/2012 21:10 19,4 C 57 % 1018,5 hPa 0,0 mm 0,0 km/h (0 Bft) O-SO 247 0 min 0 W/m 10,7 C 19,4 C 0,0 km/h (0 Bft)
02/07/2012 21:20 19,1 C 58 % 1018,5 hPa 0,0 mm 0,0 km/h (0 Bft) O-SO 247 0 min 0 W/m 10,6 C 19,1 C 0,0 km/h (0 Bft)
02/07/2012 21:30 18,7 C 59 % 1018,6 hPa 0,0 mm 0,0 km/h (0 Bft) O-SO 247 0 min 0 W/m 10,5 C 18,7 C 0,0 km/h (0 Bft)
02/07/2012 21:40 18,3 C 60 % 1018,7 hPa 0,0 mm 0,0 km/h (0 Bft) O-SO 247 0 min 0 W/m 10,4 C 18,3 C 0,0 km/h (0 Bft)
02/07/2012 21:50 18,0 C 60 % 1018,8 hPa 0,0 mm 0,0 km/h (0 Bft) O-SO 247 0 min 0 W/m 10,1 C 18,0 C 0,0 km/h (0 Bft)
02/07/2012 22:00 17,7 C 62 % 1018,8 hPa 0,0 mm 0,0 km/h (0 Bft) O-SO 247 0 min 0 W/m 10,3 C 17,7 C 0,0 km/h (0 Bft)
02/07/2012 22:10 17,4 C 62 % 1018,9 hPa 0,0 mm 0,0 km/h (0 Bft) O-SO 247 0 min 0 W/m 10,0 C 17,4 C 0,0 km/h (0 Bft)
02/07/2012 22:20 17,1 C 63 % 1019,1 hPa 0,0 mm 0,0 km/h (0 Bft) O-SO 247 0 min 0 W/m 10,0 C 17,1 C 0,0 km/h (0 Bft)
02/07/2012 22:30 16,8 C 64 % 1019,1 hPa 0,0 mm 0,0 km/h (0 Bft) O-SO 247 0 min 0 W/m 10,0 C 16,8 C 0,0 km/h (0 Bft)
02/07/2012 22:40 16,4 C 65 % 1019,2 hPa 0,0 mm 0,0 km/h (0 Bft) O-SO 247 0 min 0 W/m 9,8 C 16,4 C 0,0 km/h (0 Bft)
02/07/2012 22:50 16,1 C 65 % 1019,1 hPa 0,0 mm 0,0 km/h (0 Bft) O-SO 247 0 min 0 W/m 9,5 C 16,1 C 0,0 km/h (0 Bft)
02/07/2012 23:00 15,8 C 66 % 1019,2 hPa 0,0 mm 0,0 km/h (0 Bft) O-SO 247 0 min 0 W/m 9,5 C 15,8 C 0,0 km/h (0 Bft)
_ Min-Heure 06:30 16:50 19:20 - 23:00 - - - - 06:20 06:30 23:00
Minimum _ 7,8 C 43 % 1018,2 hPa - 0,0 km/h (0 Bft) - - - - 5,8 C 7,8 C 0,0 km/h (0 Bft)
_ Max-Heure 16:40 07:30 00:20 23:00 15:30 - - 23:00 23:00 10:40 16:40 18:40
Maximum _ 23,4 C 90 % 1020,6 hPa 0,0 mm 6,1 km/h
S-SO (2 Bft)
- - 0 min 0 W/m 12,3 C 23,4 C 8,6 km/h
O-SO (2 Bft)
Moyenne _ 16,7 C 64 % 1019,2 hPa #0,0 mm 1,0 km/h (0 Bft) SO - #0 min. 0 W/m 9,5 C 16,7 C 2,5 km/h (1 Bft)
Saint Bonnet de Bellac- Haute Vienne - France